TimePDT,TemperatureF,Dew PointF,Humidity,Sea Level PressureIn,VisibilityMPH,Wind Direction,Wind SpeedMPH,Gust SpeedMPH,PrecipitationIn,Events,Conditions,WindDirDegrees,DateUTC
12:53 AM,59.0,53.1,81,29.96,10.0,NW,8.1,-,N/A,,Clear,310,2013-08-12 07:53:00
1:53 AM,59.0,53.1,81,29.95,10.0,NW,4.6,-,N/A,,Clear,310,2013-08-12 08:53:00
2:53 AM,57.9,53.1,84,29.94,10.0,WNW,8.1,-,N/A,,Clear,290,2013-08-12 09:53:00
3:53 AM,57.0,53.1,87,29.94,10.0,NNW,3.5,-,N/A,,Clear,330,2013-08-12 10:53:00
4:53 AM,57.0,53.1,87,29.94,10.0,WNW,5.8,-,N/A,,Clear,300,2013-08-12 11:53:00
5:53 AM,55.9,53.1,90,29.96,10.0,West,5.8,-,N/A,,Clear,280,2013-08-12 12:53:00
6:53 AM,57.0,53.1,87,29.97,10.0,West,4.6,-,N/A,,Partly Cloudy,280,2013-08-12 13:53:00
7:53 AM,60.1,54.0,80,29.98,10.0,West,3.5,-,N/A,,Partly Cloudy,270,2013-08-12 14:53:00
8:53 AM,63.0,54.0,72,29.98,10.0,Calm,Calm,-,N/A,,Clear,0,2013-08-12 15:53:00
9:53 AM,68.0,54.0,61,29.98,10.0,Calm,Calm,-,N/A,,Clear,0,2013-08-12 16:53:00
10:53 AM,75.0,55.0,50,29.97,10.0,NW,5.8,-,N/A,,Clear,310,2013-08-12 17:53:00
11:53 AM,81.0,54.0,39,29.96,10.0,WNW,9.2,-,N/A,,Clear,290,2013-08-12 18:53:00
12:53 PM,84.0,48.0,28,29.95,10.0,WNW,11.5,-,N/A,,Clear,300,2013-08-12 19:53:00
1:53 PM,87.1,50.0,28,29.94,10.0,WNW,16.1,-,N/A,,Clear,290,2013-08-12 20:53:00
2:53 PM,87.1,50.0,28,29.94,10.0,WNW,15.0,21.9,N/A,,Clear,300,2013-08-12 21:53:00
3:53 PM,87.1,48.9,27,29.92,10.0,NW,11.5,-,N/A,,Clear,310,2013-08-12 22:53:00
4:53 PM,87.1,46.0,24,29.92,10.0,WNW,15.0,-,N/A,,Clear,300,2013-08-12 23:53:00
5:53 PM,84.0,46.0,26,29.92,10.0,WNW,15.0,-,N/A,,Clear,300,2013-08-13 00:53:00
6:53 PM,79.0,46.9,32,29.92,10.0,West,16.1,-,N/A,,Clear,280,2013-08-13 01:53:00
7:53 PM,73.0,46.9,39,29.94,10.0,West,15.0,-,N/A,,Clear,280,2013-08-13 02:53:00
8:53 PM,71.1,48.0,44,29.95,10.0,West,13.8,-,N/A,,Clear,280,2013-08-13 03:53:00
10:53 PM,66.0,48.9,54,29.97,10.0,WNW,4.6,-,N/A,,Clear,290,2013-08-13 05:53:00
11:53 PM,64.0,48.9,58,29.97,10.0,West,3.5,-,N/A,,Clear,270,2013-08-13 06:53:00